Latest Weather Observations for Sydney Harbour

IDN60801

Issued at 5:35 am EST Saturday 23 August 2014 (issued every 30 minutes, with the page automatically refreshed every 10 minutes)

About weather observations | Map of weather stations | Latest weather observations for NSW | Other Formats
Station Details ID: 066196 Name: WEDDING CAKE WEST Lat: -33.84 Lon: 151.26 Height: 6.0 m
Data from the previous 72 hours. | See also: Recent months for locations in New South Wales
Date/Time
EST
Temp
°C
App
Temp
°C
Dew
Point
Rel
Hum
%
Delta-T
°C
Wind Press
QNH
hPa
Press
MSL
hPa
Rain
since 9 am
mm
Dir
 
Spd
km/h
Gust
km/h
Spd
kts
Gust
kts
23/05:30am 12.3 - - - - WSW 13 17 7 9 - - -
23/05:00am 12.0 - - - - W 13 17 7 9 - - -
23/04:30am 12.2 - - - - WSW 13 17 7 9 - - -
23/04:00am 12.7 - - - - WSW 9 11 5 6 - - -
23/03:30am 12.5 - - - - WSW 11 13 6 7 - - -
23/03:00am 12.5 - - - - W 11 13 6 7 - - -
23/02:30am 12.7 - - - - WSW 13 15 7 8 - - -
23/02:00am 12.7 - - - - WSW 13 13 7 7 - - -
23/01:30am 12.7 - - - - NW 7 11 4 6 - - -
23/01:00am 12.8 - - - - W 7 9 4 5 - - -
23/12:30am 12.7 - - - - WSW 13 15 7 8 - - -
23/12:00am 12.7 - - - - W 9 11 5 6 - - -
 
Date/Time
EST
Temp
°C
App
Temp
°C
Dew
Point
Rel
Hum
%
Delta-T
°C
Wind Press
QNH
hPa
Press
MSL
hPa
Rain
since 9 am
mm
Dir
 
Spd
km/h
Gust
km/h
Spd
kts
Gust
kts
22/11:30pm 13.5 - - - - WNW 9 13 5 7 - - -
22/11:00pm 13.4 - - - - W 15 19 8 10 - - -
22/10:30pm 13.8 - - - - W 13 17 7 9 - - -
22/10:00pm 14.0 - - - - W 11 13 6 7 - - -
22/09:30pm 14.3 - - - - WSW 9 13 5 7 - - -
22/09:00pm 14.6 - - - - S 7 7 4 4 - - -
22/08:30pm 14.7 - - - - S 9 11 5 6 - - -
22/08:00pm 15.1 - - - - S 7 9 4 5 - - -
22/07:30pm 15.3 - - - - S 4 7 2 4 - - -
22/07:00pm 15.5 - - - - S 6 9 3 5 - - -
22/06:30pm 15.6 - - - - S 9 11 5 6 - - -
22/06:00pm 15.6 - - - - S 13 17 7 9 - - -
22/05:30pm 15.7 - - - - S 17 22 9 12 - - -
22/05:00pm 16.2 - - - - S 17 24 9 13 - - -
22/04:30pm 16.0 - - - - S 20 26 11 14 - - -
22/04:00pm 16.0 - - - - S 22 30 12 16 - - -
22/03:30pm 16.2 - - - - S 24 30 13 16 - - -
22/03:00pm 16.1 - - - - S 26 32 14 17 - - -
22/02:30pm 16.0 - - - - S 24 30 13 16 - - -
22/02:00pm 16.4 - - - - S 24 30 13 16 - - -
22/01:30pm 16.2 - - - - S 22 30 12 16 - - -
22/01:00pm 16.6 - - - - SSE 20 26 11 14 - - -
22/12:30pm 16.7 - - - - S 22 26 12 14 - - -
22/12:00pm 16.6 - - - - S 22 30 12 16 - - -
22/11:30am 16.7 - - - - SSE 20 24 11 13 - - -
22/11:00am 15.9 - - - - S 13 20 7 11 - - -
22/10:30am 15.4 - - - - WSW 7 9 4 5 - - -
22/10:00am 14.7 - - - - WSW 11 13 6 7 - - -
22/09:30am 14.3 - - - - W 9 13 5 7 - - -
22/09:00am 13.8 - - - - W 13 17 7 9 - - -
22/08:30am 13.3 - - - - W 13 17 7 9 - - -
22/08:00am 13.0 - - - - W 13 13 7 7 - - -
22/07:30am 12.6 - - - - NW 11 19 6 10 - - -
22/07:00am 13.1 - - - - NW 6 9 3 5 - - -
22/06:30am 13.0 - - - - WSW 15 20 8 11 - - -
22/06:00am 12.6 - - - - W 15 19 8 10 - - -
22/05:30am 12.5 - - - - W 13 17 7 9 - - -
22/05:00am 12.6 - - - - W 9 13 5 7 - - -
22/04:30am 12.7 - - - - W 13 15 7 8 - - -
22/04:00am 12.6 - - - - WSW 9 11 5 6 - - -
22/03:30am 13.0 - - - - WSW 11 17 6 9 - - -
22/03:00am 13.5 - - - - ESE 11 17 6 9 - - -
22/02:30am 13.1 - - - - WSW 7 9 4 5 - - -
22/02:00am 13.0 - - - - W 15 22 8 12 - - -
22/01:30am 13.4 - - - - W 17 22 9 12 - - -
22/01:00am 14.6 - - - - ESE 17 24 9 13 - - -
22/12:30am 14.9 - - - - SSE 13 17 7 9 - - -
22/12:00am 14.2 - - - - SSE 15 20 8 11 - - -
 
Date/Time
EST
Temp
°C
App
Temp
°C
Dew
Point
Rel
Hum
%
Delta-T
°C
Wind Press
QNH
hPa
Press
MSL
hPa
Rain
since 9 am
mm
Dir
 
Spd
km/h
Gust
km/h
Spd
kts
Gust
kts
21/11:30pm 13.5 - - - - E 19 24 10 13 - - -
21/11:10pm 13.9 - - - - E 35 41 19 22 - - -
21/11:00pm 14.5 - - - - ESE 15 22 8 12 - - -
21/10:30pm 14.3 - - - - E 20 30 11 16 - - -
21/10:00pm 14.9 - - - - E 26 33 14 18 - - -
21/09:30pm 16.0 - - - - SSE 26 33 14 18 - - -
21/09:00pm 15.9 - - - - SE 26 33 14 18 - - -
21/08:30pm 15.8 - - - - SE 26 35 14 19 - - -
21/08:00pm 14.9 - - - - SSE 28 39 15 21 - - -
21/07:30pm 15.6 - - - - SSE 19 28 10 15 - - -
21/07:00pm 15.5 - - - - SSE 22 30 12 16 - - -
21/06:30pm 15.2 - - - - SSE 24 32 13 17 - - -
21/06:00pm 15.3 - - - - SSE 20 28 11 15 - - -
21/05:30pm 15.2 - - - - SE 20 28 11 15 - - -
21/05:00pm 14.9 - - - - SE 26 33 14 18 - - -
21/04:30pm 15.3 - - - - S 28 33 15 18 - - -
21/04:00pm 15.3 - - - - S 33 41 18 22 - - -
21/03:30pm 15.3 - - - - S 32 39 17 21 - - -
21/03:00pm 15.4 - - - - S 32 44 17 24 - - -
21/02:30pm 15.1 - - - - S 30 39 16 21 - - -
21/02:00pm 15.0 - - - - S 32 39 17 21 - - -
21/01:30pm 15.0 - - - - S 32 39 17 21 - - -
21/01:00pm 14.6 - - - - S 26 33 14 18 - - -
21/12:30pm 14.9 - - - - S 28 35 15 19 - - -
21/12:00pm 14.8 - - - - S 24 32 13 17 - - -
21/11:30am 14.3 - - - - SSW 26 32 14 17 - - -
21/11:00am 14.0 - - - - SSW 28 32 15 17 - - -
21/10:30am 13.2 - - - - SW 19 22 10 12 - - -
21/10:00am 12.7 - - - - SW 17 22 9 12 - - -
21/09:30am 12.4 - - - - WSW 15 20 8 11 - - -
21/09:00am 11.7 - - - - WSW 20 26 11 14 - - -
21/08:30am 11.1 - - - - W 20 24 11 13 - - -
21/08:00am 10.9 - - - - W 22 28 12 15 - - -
21/07:30am 10.5 - - - - W 19 26 10 14 - - -
21/07:00am 10.6 - - - - WSW 20 26 11 14 - - -
21/06:30am 10.7 - - - - W 15 20 8 11 - - -
21/06:00am 10.9 - - - - WSW 19 26 10 14 - - -
21/05:30am 11.0 - - - - W 13 19 7 10 - - -
21/05:00am 11.0 - - - - W 22 28 12 15 - - -
21/04:30am 11.3 - - - - W 13 20 7 11 - - -
21/04:00am 11.4 - - - - WSW 17 20 9 11 - - -
21/03:30am 11.7 - - - - WSW 17 20 9 11 - - -
21/03:00am 11.5 - - - - WSW 13 20 7 11 - - -
21/02:30am 11.1 - - - - WSW 19 24 10 13 - - -
21/02:00am 11.3 - - - - W 15 20 8 11 - - -
21/01:30am 11.8 - - - - SW 9 15 5 8 - - -
21/01:00am 12.3 - - - - W 9 13 5 7 - - -
21/12:30am 12.7 - - - - SSW 17 20 9 11 - - -
21/12:00am 13.0 - - - - SW 20 22 11 12 - - -
 
Date/Time
EST
Temp
°C
App
Temp
°C
Dew
Point
Rel
Hum
%
Delta-T
°C
Wind Press
QNH
hPa
Press
MSL
hPa
Rain
since 9 am
mm
Dir
 
Spd
km/h
Gust
km/h
Spd
kts
Gust
kts
20/11:30pm 13.8 - - - - SW 24 28 13 15 - - -
20/11:00pm 13.2 - - - - WSW 20 24 11 13 - - -
20/10:30pm 14.2 - - - - SW 22 26 12 14 - - -
20/10:00pm 14.5 - - - - SW 19 22 10 12 - - -
20/09:30pm 14.5 - - - - SSE 22 33 12 18 - - -
20/09:00pm 14.9 - - - - S 20 30 11 16 - - -
20/08:30pm 14.9 - - - - S 22 30 12 16 - - -
20/08:00pm 14.7 - - - - S 24 32 13 17 - - -
20/07:30pm 14.8 - - - - SSW 24 30 13 16 - - -
20/07:00pm 14.8 - - - - S 24 28 13 15 - - -
20/06:30pm 14.9 - - - - S 28 35 15 19 - - -
20/06:00pm 14.8 - - - - S 26 32 14 17 - - -
20/05:30pm 14.8 - - - - S 26 32 14 17 - - -
20/05:00pm 14.9 - - - - S 30 37 16 20 - - -
20/04:30pm 14.8 - - - - S 32 35 17 19 - - -
20/04:00pm 14.8 - - - - S 32 37 17 20 - - -
20/03:30pm 14.8 - - - - S 33 41 18 22 - - -
20/03:00pm 14.6 - - - - SSW 33 46 18 25 - - -
20/02:30pm 14.3 - - - - S 35 44 19 24 - - -
20/02:00pm 14.4 - - - - SSW 39 46 21 25 - - -
20/01:30pm 14.2 - - - - SSW 35 46 19 25 - - -
20/01:00pm 13.5 - - - - S 35 48 19 26 - - -
20/12:30pm 13.1 - - - - SSW 37 50 20 27 - - -
20/12:00pm 13.8 - - - - SSW 39 46 21 25 - - -
20/11:30am 12.8 - - - - SW 35 43 19 23 - - -
20/11:00am 13.1 - - - - SSW 37 44 20 24 - - -
20/10:30am 13.2 - - - - SSW 43 54 23 29 - - -
20/10:00am 13.3 - - - - SW 35 43 19 23 - - -
20/09:30am 12.8 - - - - SW 26 33 14 18 - - -
20/09:00am 12.3 - - - - WSW 28 35 15 19 - - -
20/08:30am 12.0 - - - - W 28 35 15 19 - - -
20/08:00am 11.5 - - - - W 28 39 15 21 - - -
20/07:30am 11.2 - - - - W 26 35 14 19 - - -
20/07:00am 11.1 - - - - WSW 24 32 13 17 - - -
20/06:30am 11.5 - - - - W 26 35 14 19 - - -
20/06:00am 11.3 - - - - W 30 37 16 20 - - -

Other Formats:

Comma delimited format used in spreadsheet applications
http://www.bom.gov.au/fwo/IDN60801/IDN60801.95766.axf

JavaScript Object Notation format (JSON) in row-major order
http://www.bom.gov.au/fwo/IDN60801/IDN60801.95766.json